TimeCDT,TemperatureF,Dew PointF,Humidity,Sea Level PressureIn,VisibilityMPH,Wind Direction,Wind SpeedMPH,Gust SpeedMPH,PrecipitationIn,Events,Conditions,WindDirDegrees,DateUTC
12:56 AM,73.0,72.0,96,30.02,10.0,Calm,Calm,-,N/A,,Clear,0,2013-09-07 05:56:00
1:56 AM,73.0,71.1,93,30.01,10.0,Calm,Calm,-,N/A,,Clear,0,2013-09-07 06:56:00
2:56 AM,73.0,71.1,93,30.00,10.0,North,3.5,-,N/A,,Clear,10,2013-09-07 07:56:00
3:56 AM,73.0,70.0,90,30.00,10.0,Calm,Calm,-,N/A,,Clear,0,2013-09-07 08:56:00
4:56 AM,71.1,70.0,96,30.00,9.0,NNW,3.5,-,N/A,,Scattered Clouds,340,2013-09-07 09:56:00
5:56 AM,73.0,70.0,90,30.01,10.0,NNE,3.5,-,N/A,,Clear,20,2013-09-07 10:56:00
6:56 AM,73.0,70.0,90,30.02,10.0,Calm,Calm,-,N/A,,Clear,0,2013-09-07 11:56:00
7:56 AM,77.0,72.0,84,30.03,10.0,NNE,4.6,-,N/A,,Clear,20,2013-09-07 12:56:00
8:56 AM,80.1,71.1,74,30.04,10.0,NNE,5.8,-,N/A,,Mostly Cloudy,20,2013-09-07 13:56:00
9:56 AM,84.0,72.0,67,30.05,10.0,NNE,4.6,-,N/A,,Mostly Cloudy,30,2013-09-07 14:56:00
10:56 AM,87.1,71.1,59,30.06,10.0,Variable,3.5,-,N/A,,Scattered Clouds,0,2013-09-07 15:56:00
11:56 AM,88.0,68.0,51,30.05,10.0,ENE,3.5,-,N/A,,Mostly Cloudy,70,2013-09-07 16:56:00
12:56 PM,90.0,66.9,46,30.04,10.0,ESE,6.9,-,N/A,,Mostly Cloudy,120,2013-09-07 17:56:00
1:56 PM,89.1,71.1,55,30.02,10.0,SE,10.4,-,N/A,,Scattered Clouds,140,2013-09-07 18:56:00
2:56 PM,87.1,75.9,69,29.99,10.0,SE,9.2,-,N/A,,Mostly Cloudy,140,2013-09-07 19:56:00
3:56 PM,86.0,75.0,70,29.99,10.0,SE,9.2,-,N/A,,Mostly Cloudy,130,2013-09-07 20:56:00
4:56 PM,84.9,73.0,67,29.99,10.0,SE,10.4,-,N/A,,Mostly Cloudy,130,2013-09-07 21:56:00
5:30 PM,82.4,73.4,74,29.98,10.0,SE,8.1,-,N/A,,Mostly Cloudy,140,2013-09-07 22:30:00
5:56 PM,82.9,73.0,72,29.99,10.0,South,6.9,-,N/A,,Clear,180,2013-09-07 22:56:00
6:56 PM,81.0,73.9,79,29.99,10.0,SSW,3.5,-,N/A,,Clear,200,2013-09-07 23:56:00
7:56 PM,79.0,73.9,84,29.99,10.0,Calm,Calm,-,N/A,,Clear,0,2013-09-08 00:56:00
8:56 PM,75.0,73.9,96,30.00,10.0,Calm,Calm,-,N/A,,Clear,0,2013-09-08 01:56:00
9:56 PM,75.9,73.9,94,30.01,10.0,Calm,Calm,-,N/A,,Clear,0,2013-09-08 02:56:00
10:56 PM,75.9,73.9,94,30.01,10.0,Calm,Calm,-,N/A,,Mostly Cloudy,0,2013-09-08 03:56:00
11:56 PM,75.9,75.0,97,30.00,10.0,Calm,Calm,-,N/A,,Mostly Cloudy,0,2013-09-08 04:56:00